QPF
0.02 0.03 0.03 0.02 0.02 0.01 0.01 0.01 0.01 0.01 0.00 0.01 0.01 0.01 0.00 0.00 0.00 0.00 0.00 0.00 0.00 0.00 0.00 0.00 0.00 0.01 0.01 0.01 0.01 0.02 0.02 0.03 0.02 0.02 0.03 0.06 0.06 0.06 0.07 0.08 0.06 0.05 0.05 0.06
0.02 0.03 0.01 0.01 0.01 0.02 0.01 0.01 0.01 0.01 0.01 0.01 0.02 0.01 0.01 0.00 0.00 0.00 0.00 0.00 0.00 0.00 0.00 0.00 0.00 0.01 0.02 0.02 0.01 0.01 0.01 0.02 0.03 0.03 0.03 0.04 0.06 0.06 0.06 0.06 0.07 0.06 0.06 0.05
0.01 0.01 0.01 0.01 0.01 0.01 0.01 0.01 0.01 0.01 0.01 0.01 0.02 0.02 0.01 0.01 0.01 0.01 0.01 0.01 0.00 0.00 0.00 0.00 0.00 0.01 0.02 0.02 0.02 0.01 0.01 0.01 0.02 0.03 0.03 0.03 0.04 0.06 0.07 0.06 0.05 0.06 0.06 0.05
0.01 0.00 0.01 0.01 0.02 0.01 0.01 0.01 0.01 0.01 0.01 0.02 0.02 0.03 0.02 0.01 0.01 0.01 0.01 0.01 0.01 0.00 0.00 0.00 0.00 0.00 0.01 0.02 0.02 0.02 0.01 0.01 0.02 0.02 0.03 0.04 0.04 0.06 0.07 0.05 0.04 0.04 0.05 0.06
0.02 0.01 0.01 0.01 0.01 0.01 0.01 0.00 0.00 0.01 0.02 0.02 0.02 0.03 0.01 0.01 0.01 0.01 0.01 0.01 0.01 0.01 0.00 0.00 0.00 0.00 0.00 0.01 0.02 0.02 0.02 0.01 0.02 0.02 0.03 0.04 0.04 0.06 0.08 0.07 0.05 0.03 0.04 0.06
0.01 0.00 0.01 0.01 0.01 0.01 0.00 0.01 0.01 0.01 0.03 0.04 0.02 0.02 0.01 0.01 0.01 0.01 0.00 0.01 0.01 0.01 0.01 0.00 0.00 0.00 0.00 0.01 0.02 0.03 0.03 0.02 0.01 0.02 0.03 0.04 0.04 0.05 0.07 0.08 0.05 0.04 0.03 0.04
0.00 0.00 0.00 0.00 0.01 0.01 0.01 0.02 0.03 0.04 0.04 0.02 0.01 0.01 0.01 0.00 0.00 0.00 0.00 0.01 0.01 0.01 0.01 0.01 0.00 0.00 0.00 0.01 0.01 0.03 0.03 0.03 0.01 0.01 0.02 0.02 0.04 0.05 0.06 0.08 0.06 0.05 0.04 0.04
0.00 0.00 0.00 0.00 0.00 0.01 0.01 0.02 0.03 0.02 0.02 0.01 0.00 0.01 0.01 0.00 0.00 0.00 0.00 0.00 0.01 0.01 0.01 0.02 0.01 0.01 0.01 0.01 0.01 0.02 0.03 0.04 0.02 0.01 0.01 0.02 0.03 0.04 0.06 0.08 0.08 0.06 0.05 0.05
0.01 0.01 0.00 0.00 0.00 0.01 0.01 0.01 0.02 0.02 0.02 0.02 0.01 0.00 0.00 0.00 0.00 0.00 0.00 0.00 0.01 0.01 0.01 0.02 0.02 0.02 0.02 0.01 0.01 0.01 0.02 0.04 0.03 0.02 0.01 0.01 0.02 0.03 0.04 0.06 0.07 0.06 0.05 0.04
0.01 0.01 0.00 0.00 0.00 0.01 0.01 0.01 0.02 0.03 0.03 0.02 0.01 0.01 0.00 0.00 0.00 0.00 0.00 0.00 0.00 0.01 0.01 0.02 0.03 0.03 0.02 0.02 0.02 0.01 0.02 0.03 0.04 0.03 0.02 0.01 0.01 0.02 0.02 0.03 0.05 0.04 0.04 0.03
0.01 0.01 0.00 0.00 0.01 0.01 0.01 0.01 0.03 0.03 0.03 0.03 0.02 0.01 0.01 0.01 0.00 0.00 0.00 0.00 0.00 0.00 0.01 0.01 0.02 0.03 0.03 0.02 0.02 0.02 0.01 0.02 0.03 0.04 0.03 0.02 0.01 0.01 0.02 0.02 0.03 0.04 0.04 0.03
0.01 0.01 0.01 0.00 0.00 0.00 0.01 0.01 0.02 0.04 0.03 0.02 0.03 0.02 0.01 0.01 0.01 0.00 0.01 0.01 0.00 0.00 0.01 0.01 0.02 0.02 0.02 0.02 0.02 0.02 0.02 0.01 0.02 0.03 0.02 0.02 0.02 0.01 0.02 0.02 0.02 0.03 0.04 0.04
0.02 0.02 0.02 0.01 0.01 0.00 0.01 0.01 0.02 0.03 0.04 0.03 0.03 0.02 0.01 0.01 0.01 0.01 0.01 0.01 0.00 0.01 0.01 0.01 0.01 0.02 0.02 0.02 0.02 0.02 0.01 0.01 0.02 0.02 0.01 0.01 0.02 0.02 0.02 0.02 0.03 0.03 0.03 0.03
0.02 0.01 0.01 0.01 0.01 0.01 0.01 0.01 0.01 0.02 0.04 0.03 0.03 0.02 0.01 0.01 0.01 0.01 0.01 0.01 0.01 0.01 0.01 0.01 0.01 0.02 0.02 0.02 0.02 0.01 0.01 0.01 0.01 0.01 0.01 0.01 0.01 0.01 0.01 0.02 0.02 0.03 0.03 0.03
0.01 0.01 0.01 0.00 0.00 0.00 0.01 0.00 0.00 0.01 0.01 0.02 0.02 0.02 0.02 0.01 0.01 0.01 0.01 0.01 0.01 0.01 0.01 0.01 0.01 0.02 0.02 0.02 0.01 0.01 0.01 0.01 0.01 0.01 0.01 0.02 0.02 0.02 0.02 0.02 0.02 0.03 0.03 0.03
0.01 0.02 0.01 0.00 0.00 0.01 0.01 0.00 0.00 0.00 0.00 0.01 0.01 0.01 0.01 0.01 0.01 0.01 0.01 0.01 0.01 0.01 0.01 0.01 0.01 0.01 0.02 0.02 0.02 0.02 0.01 0.01 0.01 0.01 0.01 0.01 0.02 0.02 0.03 0.03 0.03 0.03 0.04 0.03
0.01 0.01 0.01 0.01 0.00 0.01 0.01 0.00 0.00 0.00 0.00 0.01 0.01 0.01 0.01 0.01 0.01 0.01 0.01 0.01 0.01 0.01 0.01 0.01 0.01 0.01 0.02 0.02 0.02 0.02 0.02 0.02 0.02 0.02 0.01 0.01 0.01 0.02 0.02 0.03 0.04 0.04 0.05 0.05
0.01 0.01 0.02 0.02 0.01 0.01 0.01 0.00 0.00 0.00 0.01 0.01 0.01 0.01 0.01 0.01 0.01 0.01 0.01 0.01 0.01 0.01 0.01 0.01 0.01 0.01 0.01 0.02 0.02 0.01 0.01 0.01 0.01 0.02 0.02 0.01 0.01 0.01 0.02 0.02 0.03 0.04 0.05 0.05
0.01 0.01 0.02 0.02 0.02 0.01 0.00 0.00 0.00 0.00 0.01 0.01 0.00 0.00 0.01 0.01 0.01 0.01 0.01 0.01 0.01 0.01 0.01 0.01 0.01 0.01 0.01 0.01 0.01 0.01 0.01 0.01 0.01 0.01 0.02 0.01 0.01 0.01 0.02 0.02 0.02 0.03 0.03 0.04
0.00 0.01 0.02 0.03 0.02 0.01 0.01 0.00 0.00 0.01 0.01 0.00 0.00 0.00 0.00 0.01 0.01 0.01 0.01 0.01 0.01 0.01 0.01 0.01 0.01 0.01 0.01 0.01 0.01 0.01 0.01 0.01 0.01 0.01 0.01 0.02 0.01 0.01 0.02 0.02 0.02 0.02 0.03 0.03
0.01 0.01 0.02 0.02 0.02 0.01 0.00 0.00 0.00 0.01 0.01 0.01 0.01 0.01 0.01 0.01 0.01 0.01 0.01 0.01 0.01 0.01 0.01 0.01 0.01 0.01 0.01 0.01 0.01 0.01 0.01 0.01 0.01 0.01 0.01 0.02 0.02 0.02 0.02 0.02 0.02 0.02 0.02 0.02
0.00 0.01 0.01 0.01 0.02 0.01 0.00 0.00 0.00 0.01 0.01 0.01 0.01 0.01 0.01 0.01 0.01 0.01 0.01 0.01 0.01 0.01 0.01 0.01 0.01 0.01 0.01 0.01 0.01 0.01 0.01 0.01 0.01 0.01 0.02 0.02 0.02 0.02 0.02 0.02 0.02 0.02 0.02 0.02
0.00 0.00 0.00 0.01 0.01 0.00 0.00 0.00 0.00 0.01 0.01 0.01 0.01 0.01 0.01 0.01 0.01 0.01 0.01 0.01 0.01 0.01 0.01 0.01 0.01 0.01 0.01 0.01 0.01 0.01 0.01 0.01 0.01 0.01 0.02 0.02 0.02 0.02 0.02 0.02 0.02 0.02 0.02 0.02
0.00 0.00 0.00 0.00 0.00 0.00 0.01 0.00 0.00 0.00 0.01 0.01 0.01 0.01 0.01 0.01 0.01 0.00 0.00 0.00 0.01 0.01 0.01 0.01 0.01 0.01 0.01 0.01 0.01 0.01 0.01 0.01 0.02 0.02 0.02 0.02 0.02 0.02 0.01 0.01 0.02 0.02 0.02 0.02
0.00 0.00 0.00 0.00 0.00 0.00 0.01 0.00 0.00 0.00 0.01 0.01 0.01 0.00 0.01 0.01 0.01 0.00 0.00 0.00 0.00 0.00 0.01 0.01 0.01 0.01 0.01 0.01 0.01 0.02 0.02 0.02 0.02 0.02 0.02 0.02 0.02 0.02 0.02 0.01 0.02 0.02 0.02 0.02
0.00 0.00 0.00 0.00 0.01 0.01 0.00 0.00 0.00 0.00 0.00 0.00 0.00 0.00 0.00 0.01 0.01 0.01 0.00 0.00 0.01 0.01 0.01 0.01 0.01 0.01 0.01 0.01 0.01 0.01 0.01 0.01 0.01 0.01 0.01 0.01 0.01 0.01 0.01 0.01 0.02 0.02 0.02 0.02
MSLP
1013.13 1013.27 1013.37 1013.48 1013.62 1013.81 1014.07 1014.39 1014.78 1015.20 1015.64 1016.08 1016.52 1016.95 1017.42 1017.93 1018.51 1019.19 1019.96 1020.81 1021.70 1022.60 1023.44 1024.17 1024.75 1025.14 1025.35 1025.38 1025.28 1025.08 1024.85 1024.64 1024.50 1024.44 1024.49 1024.63 1024.84 1025.11 1025.38 1025.65 1025.88 1026.07 1026.22 1026.33
1013.20 1013.25 1013.29 1013.37 1013.51 1013.73 1014.04 1014.41 1014.84 1015.27 1015.70 1016.09 1016.45 1016.80 1017.16 1017.59 1018.11 1018.76 1019.53 1020.42 1021.39 1022.38 1023.33 1024.17 1024.85 1025.35 1025.65 1025.76 1025.73 1025.59 1025.39 1025.20 1025.04 1024.95 1024.93 1024.98 1025.10 1025.26 1025.44 1025.62 1025.79 1025.95 1026.10 1026.24
1013.41 1013.39 1013.38 1013.44 1013.57 1013.81 1014.15 1014.55 1015.00 1015.45 1015.86 1016.22 1016.54 1016.84 1017.15 1017.53 1018.01 1018.65 1019.42 1020.34 1021.34 1022.38 1023.38 1024.29 1025.04 1025.61 1025.98 1026.17 1026.20 1026.12 1025.97 1025.80 1025.63 1025.49 1025.40 1025.35 1025.34 1025.37 1025.43 1025.51 1025.61 1025.73 1025.88 1026.05
1013.82 1013.76 1013.72 1013.75 1013.88 1014.12 1014.47 1014.89 1015.35 1015.80 1016.21 1016.57 1016.88 1017.17 1017.48 1017.86 1018.36 1018.99 1019.78 1020.69 1021.70 1022.73 1023.73 1024.64 1025.39 1025.98 1026.38 1026.61 1026.70 1026.66 1026.55 1026.39 1026.21 1026.02 1025.85 1025.69 1025.55 1025.44 1025.37 1025.35 1025.38 1025.46 1025.61 1025.80
1014.45 1014.38 1014.33 1014.35 1014.46 1014.68 1015.01 1015.42 1015.87 1016.33 1016.75 1017.14 1017.48 1017.82 1018.18 1018.61 1019.15 1019.81 1020.61 1021.51 1022.48 1023.46 1024.40 1025.23 1025.93 1026.48 1026.86 1027.09 1027.19 1027.18 1027.09 1026.93 1026.74 1026.51 1026.25 1025.99 1025.74 1025.51 1025.32 1025.20 1025.17 1025.21 1025.35 1025.57
1015.29 1015.23 1015.18 1015.18 1015.26 1015.45 1015.74 1016.12 1016.55 1017.00 1017.45 1017.87 1018.28 1018.70 1019.15 1019.67 1020.28 1020.99 1021.80 1022.68 1023.59 1024.48 1025.31 1026.03 1026.62 1027.07 1027.38 1027.57 1027.65 1027.64 1027.56 1027.41 1027.19 1026.93 1026.62 1026.29 1025.94 1025.61 1025.34 1025.15 1025.06 1025.07 1025.20 1025.42
1016.30 1016.27 1016.21 1016.18 1016.22 1016.35 1016.58 1016.90 1017.29 1017.73 1018.20 1018.67 1019.17 1019.69 1020.25 1020.88 1021.58 1022.35 1023.17 1024.02 1024.85 1025.63 1026.33 1026.90 1027.36 1027.69 1027.91 1028.03 1028.08 1028.05 1027.96 1027.81 1027.59 1027.31 1026.97 1026.59 1026.19 1025.81 1025.49 1025.24 1025.11 1025.10 1025.21 1025.42
1017.42 1017.40 1017.33 1017.26 1017.24 1017.29 1017.44 1017.69 1018.03 1018.44 1018.92 1019.45 1020.02 1020.65 1021.33 1022.07 1022.85 1023.67 1024.51 1025.32 1026.07 1026.74 1027.31 1027.74 1028.06 1028.28 1028.40 1028.45 1028.45 1028.41 1028.31 1028.16 1027.95 1027.67 1027.33 1026.94 1026.53 1026.13 1025.79 1025.52 1025.37 1025.34 1025.42 1025.60
1018.57 1018.55 1018.45 1018.33 1018.23 1018.19 1018.25 1018.42 1018.70 1019.08 1019.57 1020.13 1020.78 1021.49 1022.27 1023.09 1023.94 1024.80 1025.63 1026.40 1027.09 1027.67 1028.12 1028.45 1028.66 1028.78 1028.83 1028.83 1028.80 1028.74 1028.65 1028.51 1028.31 1028.05 1027.73 1027.36 1026.97 1026.58 1026.24 1025.97 1025.81 1025.75 1025.80 1025.93
1019.71 1019.65 1019.50 1019.31 1019.13 1019.01 1018.99 1019.08 1019.31 1019.67 1020.15 1020.75 1021.44 1022.20 1023.03 1023.90 1024.78 1025.64 1026.45 1027.19 1027.82 1028.33 1028.71 1028.97 1029.12 1029.20 1029.21 1029.20 1029.16 1029.09 1029.01 1028.88 1028.70 1028.47 1028.18 1027.84 1027.48 1027.12 1026.80 1026.54 1026.37 1026.29 1026.29 1026.35
1020.78 1020.67 1020.46 1020.20 1019.96 1019.77 1019.68 1019.73 1019.93 1020.28 1020.76 1021.37 1022.07 1022.85 1023.69 1024.55 1025.41 1026.24 1027.00 1027.68 1028.26 1028.72 1029.07 1029.31 1029.46 1029.54 1029.57 1029.57 1029.55 1029.50 1029.42 1029.31 1029.14 1028.92 1028.65 1028.34 1028.01 1027.69 1027.39 1027.15 1026.97 1026.85 1026.80 1026.80
1021.75 1021.59 1021.33 1021.03 1020.74 1020.52 1020.42 1020.46 1020.66 1021.02 1021.51 1022.12 1022.82 1023.58 1024.37 1025.17 1025.95 1026.69 1027.38 1027.99 1028.51 1028.94 1029.29 1029.54 1029.73 1029.86 1029.94 1029.98 1029.99 1029.97 1029.90 1029.79 1029.62 1029.40 1029.14 1028.84 1028.53 1028.23 1027.94 1027.70 1027.51 1027.37 1027.27 1027.20
1022.64 1022.43 1022.14 1021.83 1021.55 1021.35 1021.29 1021.37 1021.61 1022.00 1022.52 1023.13 1023.80 1024.49 1025.20 1025.89 1026.54 1027.15 1027.72 1028.23 1028.68 1029.09 1029.43 1029.73 1029.98 1030.18 1030.33 1030.44 1030.49 1030.49 1030.42 1030.30 1030.11 1029.88 1029.60 1029.29 1028.99 1028.69 1028.41 1028.17 1027.97 1027.80 1027.65 1027.53
1023.46 1023.24 1022.96 1022.68 1022.45 1022.33 1022.34 1022.51 1022.84 1023.29 1023.83 1024.44 1025.06 1025.67 1026.25 1026.78 1027.27 1027.71 1028.11 1028.50 1028.87 1029.23 1029.57 1029.91 1030.22 1030.50 1030.73 1030.90 1031.00 1031.01 1030.95 1030.80 1030.58 1030.32 1030.01 1029.68 1029.36 1029.05 1028.78 1028.53 1028.32 1028.13 1027.96 1027.79
1024.25 1024.05 1023.83 1023.62 1023.49 1023.48 1023.61 1023.90 1024.32 1024.84 1025.43 1026.02 1026.59 1027.09 1027.52 1027.87 1028.15 1028.39 1028.62 1028.85 1029.11 1029.40 1029.73 1030.09 1030.45 1030.80 1031.09 1031.32 1031.46 1031.49 1031.42 1031.25 1031.00 1030.69 1030.35 1030.01 1029.67 1029.35 1029.08 1028.83 1028.61 1028.41 1028.22 1028.03
1025.05 1024.92 1024.78 1024.68 1024.67 1024.78 1025.05 1025.45 1025.97 1026.56 1027.17 1027.75 1028.25 1028.63 1028.90 1029.06 1029.13 1029.16 1029.19 1029.25 1029.38 1029.59 1029.89 1030.24 1030.63 1031.02 1031.37 1031.64 1031.81 1031.86 1031.79 1031.60 1031.33 1031.00 1030.64 1030.28 1029.94 1029.63 1029.36 1029.12 1028.91 1028.71 1028.51 1028.31
1025.93 1025.88 1025.83 1025.84 1025.95 1026.18 1026.55 1027.05 1027.65 1028.28 1028.89 1029.43 1029.85 1030.11 1030.23 1030.20 1030.07 1029.90 1029.74 1029.64 1029.64 1029.75 1029.98 1030.31 1030.71 1031.12 1031.49 1031.80 1032.00 1032.07 1032.01 1031.83 1031.57 1031.24 1030.89 1030.54 1030.21 1029.92 1029.67 1029.45 1029.26 1029.07 1028.88 1028.68
1026.90 1026.94 1026.98 1027.08 1027.27 1027.57 1028.01 1028.56 1029.17 1029.80 1030.39 1030.86 1031.19 1031.34 1031.31 1031.13 1030.83 1030.49 1030.17 1029.92 1029.79 1029.81 1029.97 1030.26 1030.64 1031.04 1031.44 1031.77 1031.99 1032.09 1032.07 1031.93 1031.70 1031.41 1031.10 1030.79 1030.50 1030.26 1030.05 1029.86 1029.70 1029.53 1029.36 1029.16
1027.97 1028.08 1028.18 1028.33 1028.55 1028.87 1029.30 1029.83 1030.41 1030.99 1031.50 1031.90 1032.13 1032.18 1032.03 1031.73 1031.31 1030.85 1030.41 1030.05 1029.82 1029.74 1029.84 1030.07 1030.41 1030.81 1031.20 1031.55 1031.80 1031.95 1031.97 1031.89 1031.73 1031.51 1031.27 1031.03 1030.81 1030.63 1030.47 1030.33 1030.20 1030.06 1029.90 1029.72
1029.11 1029.25 1029.37 1029.52 1029.72 1029.99 1030.36 1030.81 1031.29 1031.77 1032.19 1032.49 1032.62 1032.58 1032.36 1031.98 1031.49 1030.95 1030.44 1030.01 1029.71 1029.57 1029.60 1029.78 1030.08 1030.45 1030.83 1031.18 1031.47 1031.66 1031.75 1031.75 1031.67 1031.54 1031.39 1031.24 1031.11 1030.99 1030.89 1030.80 1030.71 1030.60 1030.46 1030.29
1030.22 1030.37 1030.48 1030.58 1030.71 1030.89 1031.15 1031.47 1031.83 1032.18 1032.47 1032.67 1032.72 1032.61 1032.35 1031.93 1031.42 1030.86 1030.33 1029.87 1029.53 1029.34 1029.32 1029.45 1029.70 1030.03 1030.39 1030.74 1031.04 1031.28 1031.43 1031.51 1031.52 1031.49 1031.44 1031.38 1031.33 1031.28 1031.24 1031.20 1031.14 1031.05 1030.94 1030.79
1031.20 1031.33 1031.40 1031.44 1031.48 1031.56 1031.68 1031.86 1032.08 1032.29 1032.47 1032.57 1032.56 1032.41 1032.12 1031.71 1031.21 1030.68 1030.15 1029.69 1029.34 1029.13 1029.07 1029.14 1029.34 1029.62 1029.95 1030.28 1030.59 1030.85 1031.05 1031.20 1031.29 1031.35 1031.38 1031.40 1031.42 1031.44 1031.44 1031.44 1031.41 1031.35 1031.26 1031.13
1031.94 1032.05 1032.07 1032.05 1032.01 1031.99 1032.00 1032.06 1032.15 1032.25 1032.33 1032.35 1032.29 1032.13 1031.85 1031.46 1031.00 1030.51 1030.02 1029.58 1029.23 1029.00 1028.89 1028.92 1029.06 1029.28 1029.56 1029.86 1030.15 1030.42 1030.65 1030.84 1030.99 1031.11 1031.21 1031.29 1031.36 1031.42 1031.46 1031.48 1031.47 1031.43 1031.36 1031.26
1032.35 1032.44 1032.44 1032.38 1032.30 1032.21 1032.16 1032.13 1032.14 1032.16 1032.17 1032.15 1032.07 1031.90 1031.64 1031.29 1030.88 1030.43 1029.98 1029.56 1029.22 1028.97 1028.83 1028.80 1028.87 1029.03 1029.25 1029.50 1029.76 1030.02 1030.25 1030.46 1030.65 1030.80 1030.94 1031.05 1031.15 1031.23 1031.29 1031.32 1031.33 1031.30 1031.26 1031.19
1032.39 1032.48 1032.49 1032.44 1032.36 1032.28 1032.20 1032.15 1032.13 1032.12 1032.11 1032.06 1031.97 1031.81 1031.57 1031.25 1030.88 1030.47 1030.05 1029.65 1029.30 1029.03 1028.85 1028.77 1028.78 1028.87 1029.02 1029.21 1029.43 1029.66 1029.88 1030.09 1030.28 1030.45 1030.60 1030.73 1030.84 1030.92 1030.98 1031.01 1031.02 1031.01 1030.98 1030.94
1032.11 1032.23 1032.28 1032.28 1032.25 1032.21 1032.19 1032.17 1032.16 1032.16 1032.15 1032.11 1032.01 1031.86 1031.63 1031.34 1030.98 1030.59 1030.18 1029.79 1029.43 1029.14 1028.92 1028.79 1028.73 1028.76 1028.85 1028.99 1029.17 1029.36 1029.56 1029.76 1029.95 1030.11 1030.26 1030.39 1030.49 1030.57 1030.61 1030.64 1030.64 1030.63 1030.60 1030.58
Thickness
5562 5554 5549 5552 5556 5560 5562 5562 5561 5566 5564 5561 5556 5559 5562 5564 5562 5560 5558 5557 5555 5553 5551 5548 5546 5544 5543 5542 5542 5541 5541 5541 5541 5542 5542 5543 5545 5546 5547 5548 5548 5548 5548 5548
5549 5542 5544 5549 5550 5550 5552 5549 5552 5553 5552 5550 5547 5549 5556 5558 5554 5553 5550 5548 5547 5544 5541 5538 5536 5534 5534 5532 5532 5532 5532 5531 5531 5531 5532 5533 5534 5535 5537 5537 5538 5538 5537 5538
5539 5536 5540 5540 5539 5539 5539 5539 5539 5535 5536 5539 5534 5540 5550 5551 5550 5546 5544 5542 5541 5537 5532 5529 5527 5525 5523 5522 5522 5523 5522 5522 5522 5521 5522 5523 5523 5524 5526 5526 5527 5527 5527 5527
5529 5529 5530 5529 5528 5528 5526 5527 5527 5523 5518 5522 5527 5520 5540 5540 5536 5535 5533 5531 5530 5528 5525 5521 5518 5516 5514 5513 5512 5512 5512 5512 5512 5511 5512 5512 5513 5513 5514 5516 5516 5516 5516 5516
5518 5518 5517 5517 5516 5515 5514 5516 5515 5513 5509 5507 5516 5507 5525 5533 5527 5526 5524 5522 5521 5518 5516 5512 5510 5507 5505 5503 5502 5502 5501 5501 5501 5501 5501 5502 5502 5503 5504 5505 5505 5505 5505 5505
5505 5508 5506 5505 5505 5507 5505 5505 5503 5501 5496 5492 5509 5504 5516 5521 5523 5523 5518 5514 5511 5508 5505 5502 5499 5496 5494 5493 5492 5492 5491 5490 5491 5490 5491 5492 5492 5492 5493 5494 5495 5495 5494 5494
5498 5497 5496 5497 5494 5495 5494 5488 5486 5487 5485 5496 5507 5499 5505 5515 5517 5514 5509 5504 5501 5497 5493 5490 5488 5485 5484 5482 5481 5480 5480 5480 5479 5479 5480 5480 5481 5482 5482 5482 5483 5483 5483 5483
5489 5487 5486 5486 5486 5483 5485 5485 5480 5480 5489 5496 5491 5490 5501 5506 5505 5501 5498 5494 5491 5486 5482 5480 5477 5475 5473 5472 5470 5469 5469 5468 5468 5468 5468 5469 5469 5470 5470 5471 5472 5472 5472 5472
5481 5477 5474 5474 5475 5476 5476 5475 5477 5468 5466 5467 5485 5495 5495 5495 5493 5490 5486 5483 5478 5475 5472 5469 5466 5464 5462 5461 5459 5458 5458 5457 5457 5457 5457 5457 5457 5458 5458 5459 5459 5460 5459 5459
5470 5457 5462 5462 5463 5462 5464 5466 5459 5457 5459 5468 5489 5494 5488 5479 5478 5479 5475 5470 5468 5465 5461 5458 5454 5452 5450 5449 5448 5446 5446 5445 5445 5444 5445 5445 5445 5445 5445 5445 5446 5447 5447 5447
5460 5446 5446 5450 5445 5448 5446 5448 5449 5453 5456 5458 5466 5476 5478 5474 5469 5466 5464 5460 5456 5452 5449 5446 5443 5440 5438 5436 5435 5434 5433 5432 5432 5431 5432 5432 5432 5432 5432 5432 5434 5435 5434 5434
5449 5441 5434 5439 5438 5436 5439 5441 5437 5436 5441 5445 5449 5456 5460 5459 5456 5453 5450 5448 5444 5440 5436 5434 5431 5428 5426 5424 5422 5421 5420 5420 5420 5419 5419 5419 5419 5419 5419 5420 5421 5422 5422 5422
5436 5429 5425 5430 5424 5418 5421 5425 5426 5422 5424 5430 5437 5447 5444 5441 5440 5439 5436 5433 5430 5427 5424 5422 5420 5417 5414 5412 5409 5409 5408 5407 5407 5407 5407 5407 5407 5407 5407 5408 5409 5409 5410 5410
5430 5418 5420 5429 5430 5416 5410 5413 5413 5410 5409 5419 5429 5439 5436 5429 5426 5425 5424 5421 5417 5414 5412 5410 5407 5405 5402 5400 5398 5397 5396 5395 5396 5395 5395 5395 5395 5395 5396 5396 5397 5397 5398 5398
5413 5406 5405 5407 5410 5410 5408 5406 5403 5400 5407 5410 5423 5425 5426 5418 5415 5413 5411 5409 5407 5404 5401 5398 5395 5393 5390 5389 5387 5385 5384 5383 5384 5384 5384 5384 5384 5384 5384 5384 5384 5385 5385 5385
5398 5395 5393 5393 5397 5398 5399 5402 5399 5397 5398 5400 5407 5412 5413 5409 5405 5401 5399 5398 5395 5392 5389 5386 5383 5381 5379 5377 5376 5374 5373 5372 5372 5372 5372 5372 5372 5372 5372 5372 5372 5373 5372 5372
5386 5382 5385 5391 5385 5385 5389 5395 5392 5389 5390 5390 5393 5399 5396 5392 5390 5386 5385 5384 5381 5378 5376 5373 5370 5368 5367 5364 5363 5362 5361 5360 5360 5360 5360 5360 5361 5361 5360 5361 5361 5360 5360 5360
5375 5374 5375 5372 5375 5374 5402 5395 5391 5386 5381 5380 5381 5381 5379 5377 5374 5372 5370 5368 5366 5364 5363 5360 5357 5356 5354 5353 5351 5350 5349 5348 5348 5348 5348 5348 5348 5348 5349 5348 5348 5347 5347 5347
5369 5368 5369 5364 5365 5381 5392 5381 5373 5370 5370 5371 5369 5368 5364 5360 5359 5360 5357 5354 5351 5350 5348 5346 5344 5343 5342 5341 5340 5338 5336 5335 5335 5336 5336 5335 5335 5336 5336 5335 5335 5334 5335 5335
5354 5354 5356 5358 5357 5367 5384 5366 5363 5362 5358 5363 5359 5355 5349 5345 5344 5348 5343 5341 5338 5337 5335 5333 5331 5330 5329 5328 5327 5325 5323 5322 5322 5323 5323 5322 5322 5322 5322 5322 5322 5322 5322 5323
5343 5341 5341 5346 5347 5362 5360 5350 5352 5353 5359 5349 5345 5341 5335 5332 5331 5329 5328 5327 5325 5323 5322 5320 5318 5316 5315 5315 5313 5312 5311 5310 5310 5310 5310 5309 5309 5309 5309 5309 5310 5309 5310 5310
5344 5339 5336 5340 5340 5353 5342 5337 5340 5343 5338 5335 5331 5328 5323 5318 5316 5315 5315 5314 5312 5310 5309 5307 5305 5303 5302 5301 5300 5299 5297 5297 5296 5296 5296 5296 5296 5296 5296 5296 5296 5296 5297 5297
5344 5347 5345 5344 5351 5347 5334 5332 5329 5326 5324 5322 5318 5314 5310 5306 5304 5304 5302 5301 5300 5298 5296 5294 5292 5290 5289 5288 5287 5285 5285 5284 5283 5282 5282 5282 5282 5282 5283 5283 5283 5283 5283 5283
5336 5333 5335 5334 5338 5333 5324 5321 5318 5315 5312 5309 5305 5301 5298 5295 5293 5291 5290 5289 5288 5286 5284 5282 5280 5278 5276 5275 5274 5273 5272 5271 5270 5269 5268 5269 5269 5269 5269 5270 5270 5270 5270 5270
5337 5320 5319 5319 5321 5319 5319 5314 5309 5304 5300 5296 5292 5289 5286 5284 5282 5280 5278 5277 5275 5275 5272 5269 5267 5265 5264 5262 5261 5260 5260 5258 5257 5256 5256 5256 5257 5257 5256 5257 5256 5257 5257 5257
5324 5315 5313 5322 5318 5312 5311 5306 5300 5294 5290 5286 5282 5279 5276 5274 5271 5269 5267 5265 5263 5261 5260 5257 5255 5253 5251 5250 5249 5248 5246 5245 5244 5244 5244 5243 5244 5244 5244 5244 5244 5244 5245 5246